Flag for Germany Weather past 2 weeks in Niederkassel, North Rhine-Westphalia, Germany

Now
45 °F

Passing clouds.


Feels Like: 44 °F
Forecast: 42 / 51 °F
Wind: 3 mph from South

Location: Bonn-Hangelar


UV Index: 3 (Moderate)

Visibility: 38 mi


Pressure: 30.26 "Hg

Humidity: 57%

Dew point: 31 °F

Location of NiederkasselLocation

Historic Weather in Niederkassel

°F

Niederkassel temperature yesterday

Maximum temperature yesterday: 56 °F (at 6:00 PM)
Minimum temperature yesterday: 32 °F (at 6:00 AM)
Average temperature yesterday: 45 °F

Past Weeks' High & Low Weather Summary

 TemperatureHumidityPressure
High69 °F (Apr 2, 5:00 PM)99% (Apr 12, 9:00 AM)30.44 "Hg (Apr 12, 9:00 AM)
Low32 °F (Apr 16, 6:00 AM)37% (Apr 2, 1:00 PM)29.60 "Hg (Apr 3, 1:00 PM)
Average51 °F73%30.05 "Hg
* Reported Apr 2 7:00 AM — Apr 17 7:00 AM, Niederkassel, Weather by CustomWeather, © 2014

Note: Actual official high and low records may vary slightly from our data, if they occured in-between our weather recording intervals... More about our weather records

Advertising

Historic Weather Conditions — Data for Previous 24 hours

 ConditionsComfort  
Time TempWeatherWind HumidityBarometerVisibility
7:00 AM
Apr 17
40 °FPassing clouds.7 mph67%30.28 "Hg28 mi
6:00 AM38 °FPassing clouds.5 mph72%30.29 "Hg37 mi
5:00 AM42 °FPassing clouds.3 mph66%30.29 "Hg37 mi
4:00 AM44 °FPassing clouds.5 mph58%30.30 "Hg47 mi
3:00 AM44 °FPassing clouds.5 mph58%30.32 "Hg47 mi
2:00 AM44 °FPassing clouds.5 mph58%30.33 "Hg47 mi
1:00 AM46 °FPassing clouds.6 mph54%30.33 "Hg47 mi
12:00 AM45 °FPassing clouds.5 mph60%30.34 "Hg47 mi
11:00 PM
Apr 16
44 °FPassing clouds.5 mph61%30.35 "Hg43 mi
10:00 PM45 °FPassing clouds.3 mph61%30.35 "Hg37 mi
9:00 PM48 °FPassing clouds.3 mph57%30.34 "Hg37 mi
8:00 PM52 °FPassing clouds.6 mph45%30.33 "Hg37 mi
7:00 PM55 °FPassing clouds.6 mph40%30.33 "Hg37 mi
6:00 PM56 °FPassing clouds.6 mph40%30.34 "Hg31 mi
5:00 PM55 °FPassing clouds.7 mph38%30.35 "Hg31 mi
4:00 PM55 °FPassing clouds.7 mph42%30.37 "Hg31 mi
3:00 PM55 °FPassing clouds.7 mph43%30.39 "Hg31 mi
2:00 PM54 °FPassing clouds.6 mph45%30.40 "Hg31 mi
1:00 PM52 °FPassing clouds.5 mph46%30.42 "Hg25 mi
12:00 PM50 °FPassing clouds.5 mph55%30.42 "Hg25 mi
11:00 AM47 °FScattered clouds.5 mph62%30.44 "Hg25 mi
10:00 AM44 °FScattered clouds.5 mph66%30.44 "Hg22 mi
9:00 AM40 °FPartly sunny.3 mph82%30.44 "Hg19 mi
8:00 AM36 °FPartly sunny.1 mph87%30.44 "Hg19 mi
Weather by CustomWeather, © 2014

See weather overview